Wind_Speed
10 10 10 10 12 13 14 15 15 16 18 19 20 22 23 25 27 29 31 34 37 38 37 38 39 39 40 40 41 42 42 43 44 44 45 45 45 45 46 46 47 47 47 47
9 10 11 11 12 13 14 15 16 16 17 19 21 22 23 25 26 28 29 31 34 36 36 36 37 38 38 39 39 39 40 41 41 42 43 43 44 44 44 45 45 46 46 45
10 10 11 11 12 12 14 15 16 17 17 19 22 23 22 24 26 27 28 29 31 33 35 36 37 37 37 37 38 38 38 38 39 40 41 42 42 43 43 43 43 43 43 43
10 9 9 11 12 13 15 15 16 17 18 19 20 22 23 23 25 26 28 28 29 31 33 34 35 36 37 37 37 37 37 37 38 39 40 40 40 40 40 40 40 41 41 41
11 9 9 10 11 13 15 15 16 17 19 20 20 21 22 23 24 26 27 28 29 30 32 33 34 35 35 36 36 36 36 37 37 37 37 38 38 38 39 39 38 38 39 39
12 11 10 10 12 13 14 14 16 16 18 19 20 21 21 23 24 25 26 28 29 30 31 32 33 33 34 34 35 35 35 36 36 36 37 37 37 38 38 38 38 38 38 39
13 12 11 12 12 14 15 16 16 17 18 19 20 21 21 23 24 25 26 27 28 29 30 31 32 32 33 34 35 35 35 36 36 36 36 36 36 37 37 37 38 38 38 38
15 13 13 15 15 15 16 16 17 18 19 19 20 20 21 22 23 25 26 27 28 28 29 29 30 31 32 33 34 34 35 35 35 36 36 36 36 36 36 36 37 37 37 37
18 17 17 16 16 16 18 18 19 19 20 20 21 20 21 23 24 25 27 28 28 29 29 30 30 30 31 32 33 33 34 35 35 36 36 36 36 36 36 36 36 36 36 36
19 18 17 17 17 18 19 20 20 21 21 22 22 22 22 23 23 24 26 27 28 29 29 30 31 31 31 32 33 33 34 34 34 34 34 35 35 36 36 36 36 36 36 36
20 20 19 18 19 19 20 22 22 22 22 22 23 23 24 25 25 24 25 26 27 27 28 29 30 31 31 32 32 33 33 33 33 34 34 34 35 35 35 35 35 35 35 35
22 22 22 21 21 21 21 22 23 23 23 23 24 25 26 26 25 25 25 25 26 27 28 28 29 29 30 31 32 32 32 33 33 33 34 34 34 35 34 34 34 34 34 34
24 25 24 23 22 22 22 22 23 25 25 25 26 26 26 27 26 26 25 25 26 27 27 28 29 29 30 31 31 31 31 32 32 33 33 33 33 33 33 33 33 33 34 34
26 27 26 25 24 23 22 23 24 25 26 26 26 27 27 27 27 27 26 25 26 26 27 27 28 28 29 30 30 31 31 32 32 32 32 32 33 33 33 33 34 34 34 34
28 29 28 27 26 24 24 24 24 25 25 26 26 26 26 27 27 28 28 27 27 27 27 27 27 28 28 29 29 30 30 31 31 32 32 33 33 33 33 33 33 33 33 34
30 30 29 28 27 26 25 25 24 24 24 24 24 25 26 27 27 28 28 27 27 28 28 28 28 28 29 29 30 30 30 31 31 31 32 32 32 32 32 33 33 33 33 33
31 31 30 29 28 27 27 25 24 23 23 23 23 24 25 25 26 27 27 26 27 27 28 28 29 29 30 30 31 30 30 30 31 31 31 31 32 32 32 32 33 33 33 34
32 31 31 29 29 28 27 26 24 23 23 22 23 23 24 25 26 27 28 28 27 27 28 29 29 29 29 30 31 31 31 31 31 31 32 32 32 32 32 32 32 33 33 33
33 32 32 31 31 29 28 26 24 24 23 22 22 22 24 24 25 26 27 28 29 29 29 30 30 30 30 30 30 31 32 32 32 32 32 32 32 32 32 32 32 33 33 34
34 33 33 33 32 31 29 27 26 25 23 22 22 22 23 24 25 26 26 27 28 29 29 30 30 30 31 30 31 31 31 32 32 32 32 33 33 33 33 33 33 33 33 33
35 35 35 34 33 32 30 28 27 26 25 24 23 23 24 24 25 27 27 27 28 29 29 29 30 30 31 31 31 31 32 32 33 33 33 33 33 33 33 33 34 34 34 33
36 36 36 36 34 32 31 29 28 27 26 25 25 25 25 26 26 27 28 29 29 30 30 30 30 31 31 31 31 32 32 33 33 33 33 33 33 33 33 34 34 34 34 35
37 38 38 37 35 33 32 31 30 28 27 27 26 26 27 27 28 28 29 29 30 30 30 30 30 30 31 31 31 32 33 33 33 33 33 33 34 34 34 34 34 34 34 35
39 39 38 37 36 34 33 31 30 29 28 28 28 27 27 27 28 29 29 29 29 30 30 29 30 31 31 31 31 31 31 31 32 32 33 33 33 33 34 34 34 34 35 35
39 39 38 37 35 34 32 31 30 29 28 28 28 28 28 27 27 28 28 28 29 29 29 29 30 30 30 30 30 30 30 30 31 31 32 32 33 33 34 34 35 35 35 35
39 38 37 36 35 33 32 31 29 28 27 27 27 27 27 27 27 27 27 27 27 27 27 28 28 29 29 29 29 29 29 30 30 30 31 31 32 33 34 34 35 35 35 35
38 36 35 35 34 33 32 31 29 28 28 27 27 26 26 25 25 25 24 24 24 24 25 25 26 26 27 27 27 27 28 28 29 29 30 31 32 32 33 33 34 34 35 35
Wind_Direction
289 284 278 271 262 257 256 255 253 248 245 241 239 236 237 237 234 233 233 232 230 231 232 233 234 236 237 239 241 243 245 247 248 250 251 253 255 257 259 261 264 266 268 269
299 285 276 268 265 263 261 260 257 253 246 243 241 239 238 239 238 237 235 234 232 231 232 233 234 236 238 240 242 244 245 247 249 250 252 253 255 258 260 262 264 266 267 269
307 294 278 269 270 269 265 263 260 257 251 250 247 245 242 240 239 238 236 236 234 233 232 234 236 237 239 240 242 243 245 247 249 251 253 254 256 258 260 262 264 266 267 269
324 307 283 280 273 271 271 267 263 259 256 255 253 252 248 245 242 239 237 236 235 235 234 236 237 238 239 240 241 243 246 248 250 252 253 255 257 259 260 262 264 266 268 269
328 313 294 283 275 271 273 271 268 263 260 258 255 253 251 248 244 242 241 239 238 236 236 237 238 239 240 240 241 243 245 247 249 251 253 255 257 258 260 262 265 267 268 270
326 316 304 293 279 272 273 272 268 265 261 258 255 253 251 248 246 245 243 241 240 238 237 237 238 239 240 241 242 243 245 248 250 251 253 255 257 259 261 263 265 267 269 270
328 315 303 298 285 276 273 274 270 265 262 259 256 254 251 251 249 246 244 243 241 240 240 239 240 240 241 242 243 244 246 249 250 252 253 255 258 260 262 264 266 268 270 271
331 320 309 301 287 279 274 274 272 268 265 262 259 257 254 252 250 247 243 242 241 241 242 242 242 242 243 244 245 246 247 249 250 252 254 256 259 260 262 264 266 268 269 271
333 325 316 306 291 280 274 274 272 270 267 264 261 260 258 255 251 248 247 245 245 244 244 244 244 244 245 246 247 248 249 251 252 253 255 257 258 260 262 265 267 268 270 272
331 329 321 310 296 284 277 275 274 273 269 265 263 261 258 256 253 252 251 249 249 248 247 246 245 245 245 247 248 249 251 251 253 254 256 257 259 260 262 265 267 269 270 272
325 324 322 314 303 293 283 277 274 275 273 268 265 261 259 258 255 254 253 252 251 250 249 248 247 247 247 248 249 249 250 251 253 254 256 258 260 262 263 266 268 269 270 271
323 321 319 315 308 298 290 282 275 274 273 270 267 264 260 258 257 256 255 253 253 252 251 249 248 247 248 248 250 250 252 253 254 256 257 259 261 263 264 266 267 268 269 270
321 320 318 315 310 304 297 289 281 277 274 270 269 266 260 257 255 255 256 255 255 254 253 251 251 251 251 251 252 252 252 254 255 257 258 260 262 263 264 266 267 268 269 270
320 319 317 314 312 306 300 295 289 283 278 273 271 266 260 256 254 253 254 255 255 255 253 252 252 252 252 252 253 253 254 255 256 257 259 260 262 264 265 266 268 269 269 270
319 318 317 313 310 307 304 300 294 287 283 276 271 265 260 257 255 254 253 255 255 255 254 254 254 254 254 254 255 255 256 257 258 259 260 261 262 264 265 266 267 268 269 270
318 317 316 314 311 307 305 302 298 292 286 279 271 266 261 257 255 255 255 256 255 255 255 254 255 256 256 256 257 257 258 259 259 261 261 262 263 264 264 265 267 268 269 270
319 318 315 313 311 309 306 302 299 296 289 282 273 266 261 259 257 254 254 255 256 256 256 256 256 257 257 257 257 258 259 259 260 261 262 263 264 264 265 266 267 268 269 270
319 318 316 313 312 310 307 304 302 297 292 284 275 267 262 260 258 257 256 256 257 257 259 260 260 260 260 259 258 258 258 260 261 261 262 264 265 265 266 267 269 269 270 270
319 318 317 315 313 311 307 303 301 298 292 286 278 270 264 261 259 257 258 258 258 259 260 261 262 262 262 262 261 259 259 260 261 263 264 264 265 266 268 269 270 271 271 271
319 318 316 314 313 311 308 304 301 297 292 285 279 273 267 262 259 259 260 260 261 262 262 263 263 263 263 263 262 261 260 260 261 263 264 265 266 267 269 271 272 272 272 272
318 317 315 314 313 311 309 304 299 295 290 284 279 274 270 265 262 261 261 263 263 264 264 264 264 264 263 263 264 263 263 263 263 263 264 265 266 268 269 271 272 272 273 273
317 317 315 313 312 310 308 304 298 294 290 285 281 276 271 267 266 265 264 264 265 265 265 266 265 264 264 264 265 264 264 265 265 264 263 264 266 267 269 271 273 273 273 273
315 315 315 313 311 308 306 303 298 294 289 285 282 279 274 271 268 267 266 266 266 266 266 266 265 265 265 266 267 266 266 265 264 264 264 265 266 267 270 272 273 274 274 275
315 314 314 313 311 309 305 301 298 295 290 285 282 280 277 273 270 268 268 267 267 266 265 265 266 266 266 267 268 268 267 266 265 265 264 265 266 268 270 272 273 274 275 275
314 314 314 313 312 310 305 301 298 295 292 288 285 281 278 274 272 270 269 269 268 267 265 265 266 267 267 267 267 267 267 267 267 266 266 266 267 269 270 272 273 274 275 276
312 313 313 313 311 310 306 302 299 297 294 290 286 283 279 276 274 272 271 269 268 267 267 266 267 267 266 266 267 268 268 268 268 268 268 269 269 270 272 273 274 275 275 276
311 311 311 312 311 309 307 304 301 298 295 290 287 284 281 277 274 272 271 269 268 268 268 268 268 267 267 267 268 268 269 269 270 270 270 271 271 272 273 274 275 276 276 276
Height
5618 5617 5616 5616 5616 5616 5617 5617 5617 5618 5619 5621 5622 5624 5627 5629 5631 5634 5638 5641 5646 5650 5654 5658 5662 5665 5668 5672 5675 5678 5681 5684 5686 5688 5690 5692 5693 5695 5696 5697 5698 5698 5698 5698
5615 5614 5613 5613 5613 5613 5613 5613 5613 5614 5615 5616 5617 5619 5620 5622 5625 5628 5630 5634 5637 5641 5645 5649 5653 5656 5659 5663 5666 5668 5671 5674 5676 5678 5680 5682 5683 5684 5685 5686 5687 5687 5687 5687
5612 5611 5610 5610 5610 5609 5609 5609 5609 5610 5612 5611 5612 5613 5615 5617 5619 5621 5624 5627 5630 5634 5637 5641 5644 5647 5650 5653 5656 5659 5662 5664 5666 5668 5670 5671 5673 5674 5675 5675 5676 5676 5676 5676
5609 5609 5607 5609 5607 5606 5605 5605 5605 5605 5606 5606 5607 5608 5609 5611 5613 5615 5617 5620 5623 5626 5629 5633 5636 5639 5641 5644 5647 5650 5652 5655 5657 5658 5660 5661 5662 5663 5664 5665 5665 5665 5665 5665
5607 5606 5605 5604 5603 5602 5602 5601 5601 5601 5601 5601 5602 5603 5604 5605 5607 5609 5611 5613 5615 5618 5621 5624 5627 5629 5632 5635 5638 5640 5643 5645 5647 5649 5650 5651 5653 5654 5654 5655 5655 5655 5655 5654
5605 5603 5602 5602 5599 5598 5599 5598 5597 5596 5596 5596 5596 5598 5599 5599 5601 5602 5604 5606 5608 5611 5613 5616 5618 5621 5623 5626 5629 5631 5633 5636 5637 5639 5640 5641 5643 5643 5644 5644 5645 5644 5644 5644
5602 5600 5598 5598 5596 5595 5596 5595 5593 5592 5591 5591 5591 5592 5593 5593 5594 5595 5597 5599 5601 5603 5605 5608 5610 5612 5615 5617 5620 5622 5624 5626 5628 5629 5630 5632 5633 5633 5634 5634 5634 5634 5634 5633
5599 5597 5598 5593 5591 5591 5591 5589 5588 5587 5586 5586 5586 5586 5586 5586 5587 5588 5589 5591 5593 5595 5597 5600 5602 5604 5606 5608 5611 5613 5614 5616 5618 5619 5620 5622 5622 5623 5624 5624 5624 5624 5623 5623
5597 5596 5591 5588 5586 5585 5584 5583 5582 5581 5581 5580 5580 5580 5580 5580 5580 5581 5582 5584 5585 5587 5589 5591 5593 5595 5597 5599 5601 5603 5605 5606 5608 5609 5611 5612 5612 5613 5613 5614 5614 5613 5613 5612
5593 5590 5587 5583 5581 5579 5578 5577 5576 5575 5574 5573 5573 5573 5573 5573 5573 5574 5575 5576 5578 5579 5581 5583 5584 5586 5588 5590 5592 5594 5595 5597 5598 5599 5601 5601 5602 5603 5603 5603 5603 5603 5603 5602
5588 5585 5582 5579 5576 5574 5572 5570 5569 5568 5567 5566 5566 5566 5566 5566 5566 5567 5568 5569 5570 5571 5573 5574 5576 5578 5579 5581 5583 5584 5586 5587 5589 5590 5591 5592 5592 5593 5593 5593 5593 5593 5592 5592
5585 5580 5577 5574 5570 5567 5565 5563 5562 5561 5560 5559 5558 5558 5558 5558 5559 5559 5560 5561 5562 5563 5564 5566 5567 5569 5570 5572 5573 5575 5576 5578 5579 5580 5581 5581 5582 5582 5582 5583 5583 5582 5582 5581
5579 5574 5571 5567 5564 5561 5558 5556 5554 5553 5551 5550 5549 5549 5549 5550 5550 5551 5552 5553 5554 5555 5556 5557 5559 5560 5561 5563 5564 5566 5567 5568 5569 5570 5571 5571 5572 5572 5572 5573 5572 5572 5572 5571
5572 5568 5564 5560 5557 5554 5551 5548 5546 5544 5542 5541 5540 5539 5539 5540 5542 5543 5544 5545 5546 5547 5548 5549 5550 5551 5552 5554 5555 5556 5557 5558 5559 5560 5561 5561 5562 5562 5562 5562 5562 5562 5561 5561
5566 5561 5557 5553 5550 5546 5543 5540 5537 5535 5533 5531 5530 5530 5530 5531 5533 5534 5535 5536 5537 5538 5539 5540 5541 5542 5544 5545 5546 5547 5548 5548 5549 5550 5551 5551 5552 5552 5552 5552 5552 5551 5551 5551
5559 5554 5550 5546 5542 5538 5535 5532 5529 5526 5524 5522 5521 5521 5522 5523 5524 5525 5526 5527 5528 5529 5530 5531 5532 5533 5534 5535 5536 5537 5538 5539 5539 5540 5540 5541 5541 5541 5542 5542 5542 5541 5541 5540
5552 5547 5543 5539 5535 5531 5528 5524 5521 5518 5515 5514 5513 5513 5513 5514 5515 5516 5518 5519 5520 5520 5521 5522 5523 5524 5525 5526 5527 5527 5528 5529 5529 5530 5530 5531 5531 5531 5531 5531 5531 5531 5530 5530
5545 5540 5536 5532 5528 5524 5520 5516 5513 5510 5507 5505 5504 5504 5505 5506 5506 5508 5509 5510 5511 5512 5512 5513 5514 5514 5515 5515 5516 5517 5518 5519 5519 5520 5520 5521 5521 5521 5521 5521 5520 5520 5520 5519
5538 5534 5529 5524 5520 5516 5512 5509 5505 5502 5499 5497 5496 5496 5496 5497 5498 5499 5499 5500 5501 5502 5503 5503 5504 5504 5505 5505 5506 5506 5507 5508 5509 5509 5510 5510 5510 5510 5510 5510 5510 5509 5509 5508
5531 5526 5521 5517 5512 5508 5504 5501 5498 5494 5492 5490 5489 5488 5488 5488 5489 5490 5491 5491 5492 5492 5493 5493 5494 5494 5494 5495 5495 5496 5496 5497 5498 5498 5499 5499 5500 5500 5500 5499 5499 5499 5498 5497
5523 5518 5514 5509 5504 5500 5496 5493 5489 5487 5484 5482 5481 5480 5480 5480 5480 5481 5481 5482 5482 5482 5482 5483 5483 5483 5484 5484 5484 5485 5485 5486 5487 5487 5488 5488 5489 5489 5489 5489 5488 5488 5487 5486
5515 5510 5505 5500 5496 5492 5487 5484 5481 5478 5476 5474 5473 5472 5471 5471 5471 5471 5471 5472 5472 5472 5472 5472 5472 5472 5473 5473 5473 5474 5474 5475 5475 5476 5476 5477 5477 5478 5478 5477 5477 5476 5476 5475
5506 5501 5496 5491 5487 5483 5478 5475 5471 5469 5467 5465 5464 5463 5462 5461 5461 5461 5462 5461 5461 5461 5461 5461 5461 5462 5462 5462 5462 5462 5463 5463 5463 5464 5465 5465 5466 5466 5466 5466 5466 5465 5464 5463
5497 5492 5487 5482 5477 5473 5469 5466 5462 5459 5457 5455 5454 5453 5452 5452 5451 5451 5451 5451 5451 5451 5451 5451 5451 5451 5451 5451 5451 5451 5451 5451 5452 5452 5453 5454 5454 5455 5455 5454 5454 5453 5453 5452
5488 5482 5477 5472 5468 5464 5460 5456 5453 5450 5448 5446 5444 5443 5442 5441 5441 5441 5441 5440 5440 5440 5440 5440 5440 5440 5440 5440 5440 5440 5441 5441 5441 5441 5442 5442 5443 5443 5443 5443 5442 5441 5441 5440
5478 5473 5468 5463 5459 5455 5451 5447 5444 5441 5439 5437 5435 5434 5432 5432 5431 5431 5431 5430 5430 5430 5430 5430 5430 5430 5430 5430 5430 5430 5430 5430 5430 5431 5431 5431 5431 5431 5431 5431 5430 5429 5428 5427
5468 5463 5459 5455 5450 5446 5442 5438 5435 5433 5430 5428 5426 5424 5423 5422 5422 5422 5421 5421 5421 5421 5421 5420 5420 5420 5420 5420 5420 5420 5420 5420 5420 5420 5420 5420 5420 5419 5419 5418 5418 5417 5416 5415